Regional Weather Roundup
Issued by NWS

Home | Current Version | Previous Version | Text Only | Print | Product List | Glossary Off
Versions: 1 2 3 4 5 6 7 8 9 10 11 12 13 14 15 16 17 18 19 20 21 22 23 24 25 26 27 28 29 30 31 32 33 34 35 36 37 38 39 40 41 42 43 44 45 46 47 48 49 50

000
ASUS45 KABQ 262110
RWRNM
NEW MEXICO REGIONAL WEATHER ROUNDUP
NATIONAL WEATHER SERVICE ALBUQUERQUE NM
300 PM MDT TUE JUL 26 2016

NOTE: "FAIR" MEANS FEW OR NO CLOUDS BELOW 12,000 FEET AGL WITH NO
       SIGNIFICANT WEATHER OR OBSTRUCTIONS TO VISION.

      THIS PRODUCT IS RELEASED AS TWO VERSIONS.  ONE VERSION NEAR
      THE TOP OF THE HOUR CONTAINING PRELIMINARY DATA FROM ALBUQUERQUE
      AND OTHER STATIONS.  A FINAL VERSION WITH ADDITIONAL DATA IS
      ISSUED ABOUT 10 MINUTES AFTER THE HOUR.

NMZ501-503-504-510>518-262200-
NORTHWEST PLATEAU/NORTHCENTRAL MOUNTAINS

CITY           SKY/WX    TMP DP  RH WIND       PRES   REMARKS
FARMINGTON     FAIR      90  47  22 W13       30.14F
LOS ALAMOS     CLOUDY    76  50  40 SW8       30.29F
SANTA FE       FAIR      89  48  24 VRB6G21   30.19F
TAOS           FAIR      82  37  20 NW8       30.27
ANGEL FIRE     LGT RAIN  69  51  53 W13       30.40R

$$
NMZ402-403-502-505>509-262200-
WESTCENTRAL MOUNTAINS/SOUTHWEST MOUNTAINS

CITY           SKY/WX    TMP DP  RH WIND       PRES   REMARKS
GALLUP         CLOUDY    85  48  27 N15       30.25F
GRANTS         CLOUDY    69  58  67 W15       30.29S
SILVER CITY    FAIR      92  49  23 SW10      30.14F

$$
NMZ407-409-411-412-262200-
SOUTHERN DESERTS

CITY           SKY/WX    TMP DP  RH WIND       PRES   REMARKS
LORDSBURG      FAIR      95  52  23 CALM      30.05F
DEMING         NOT AVBL
LAS CRUCES     FAIR      95  49  20 S6G17     30.08F
HOLLOMAN AFB   FAIR      93  51  23 NW8       30.04F
ALAMOGORDO     FAIR      90  50  25 CALM      30.07F
T OR C         FAIR      90  52  27 SW6       30.09F

$$
NMZ519>523-262200-
CENTRAL VALLEYS/CENTRAL HIGHLANDS

CITY           SKY/WX    TMP DP  RH WIND       PRES   REMARKS
ALBUQUERQUE    FAIR      89  52  28 W8        30.14F
DOUBLE EAGLE   MOSUNNY   90  54  29 VRB3      30.19
MORIARTY ARPT  FAIR      87  47  24 S8        30.22F
CLINES CORNERS FAIR      80  52  37 W14G22    30.27F
BELEN          FAIR      91  45  20 N9        30.12F
SOCORRO        FAIR      89  50  25 S8        30.10F

$$
NMZ524>526-539-540-262200-
SOUTHCENTRAL MOUNTAINS

CITY           SKY/WX    TMP DP  RH WIND       PRES   REMARKS
RUIDOSO          N/A     73  54  49 S15G23    30.31S

$$
NMZ527>531-262200-
NORTHEAST HIGHLANDS/NORTHEAST PLAINS

CITY           SKY/WX    TMP DP  RH WIND       PRES   REMARKS
LAS VEGAS      PTSUNNY   82  43  25 CALM      30.24F
RATON          FAIR      81  43  26 MISG      30.19F
CLAYTON        FAIR      91  53  27 S8        30.12F

$$
NMZ532>537-262200-
EASTCENTRAL PLAINS

CITY           SKY/WX    TMP DP  RH WIND       PRES   REMARKS
TUCUMCARI      FAIR      93  51  23 SE8       30.05F
CANNON AFB     FAIR      89  60  37 VRB3      30.09F
CLOVIS AIRPORT FAIR      90  55  31 S5        30.09F

$$
NMZ028-029-538-262200-
SOUTHEAST PLAINS

CITY           SKY/WX    TMP DP  RH WIND       PRES   REMARKS
ROSWELL        FAIR      92  59  33 S7G17     30.05F
ARTESIA        FAIR      93  57  29 W9        30.05S
CARLSBAD       FAIR      93  61  34 E23G30    30.01F
HOBBS          TSTM      75  64  69 E17       30.07F


$$



USA.gov is the U.S. government's official web portal to all federal, state and local government web resources and services.